EDT,Max TemperatureF,Mean TemperatureF,Min TemperatureF,Max Dew PointF,MeanDew PointF,Min DewpointF,Max Humidity, Mean Humidity, Min Humidity, Max Sea Level PressureIn, Mean Sea Level PressureIn, Min Sea Level PressureIn, Max VisibilityMiles, Mean VisibilityMiles, Min VisibilityMiles, Max Wind SpeedMPH, Mean Wind SpeedMPH, Max Gust SpeedMPH,PrecipitationIn, CloudCover, Events, WindDirDegrees
2012-10-1,73,68,64,70,62,59,94,77,61,29.96,29.92,29.89,10,10,10,14,4,20,0.00,,,74
2012-10-2,77,75,73,73,71,70,94,87,83,30.02,29.94,29.89,10,8,3,16,9,21,0.00,,Rain,177
2012-10-3,86,80,73,73,72,70,94,83,62,30.17,30.10,30.02,10,9,5,13,8,,0.00,,Rain,195
2012-10-4,84,78,71,72,67,61,94,73,45,30.21,30.16,30.12,10,10,10,9,5,18,0.00,,,275
2012-10-5,78,70,62,66,61,55,94,72,44,30.14,30.10,30.04,10,10,10,10,4,,0.00,,,16
2012-10-6,82,72,62,66,61,55,94,68,39,30.04,29.95,29.88,10,10,5,13,4,,0.00,,,233
2012-10-7,75,67,59,64,61,54,88,77,60,30.10,30.00,29.96,10,10,3,16,11,23,0.00,,Rain,18
2012-10-8,66,62,59,61,57,52,94,81,68,30.19,30.11,30.05,10,10,3,20,14,26,0.00,,Rain,36
2012-10-9,68,65,62,64,62,59,94,89,83,30.07,30.03,30.00,10,8,3,15,9,21,0.00,,Rain,353
2012-10-10,68,64,60,61,55,50,94,76,52,30.06,30.01,29.95,10,10,5,10,5,,0.00,,,280
2012-10-11,64,57,50,55,47,43,87,64,45,30.28,30.21,30.06,10,10,10,16,8,24,0.00,,,15
2012-10-12,69,58,46,52,46,43,93,67,40,30.30,30.20,30.15,10,10,3,17,4,24,0.00,,,335
2012-10-13,66,62,57,54,46,41,88,57,45,30.45,30.39,30.33,10,10,10,16,12,25,0.00,,,54
2012-10-14,78,66,53,61,55,52,94,70,41,30.35,30.22,30.08,10,9,1,10,3,,0.00,,,167
2012-10-15,80,70,60,64,61,57,94,75,47,30.07,29.86,29.71,10,10,2,20,4,25,0.00,,Rain,215
2012-10-16,64,58,51,63,48,45,94,65,49,29.93,29.86,29.73,10,10,10,16,10,26,0.00,,,1
2012-10-17,68,59,50,54,49,46,94,75,52,30.03,29.99,29.93,10,10,10,7,1,,0.00,,,42
2012-10-18,78,64,51,66,58,48,94,71,42,29.99,29.92,29.84,10,10,4,10,5,,0.00,,,135
2012-10-19,77,70,64,68,66,63,94,83,69,29.82,29.77,29.72,10,9,0,12,5,,0.00,,Fog,190
2012-10-20,77,68,60,63,50,37,83,55,24,29.90,29.81,29.77,10,10,10,16,6,20,0.00,,,246
2012-10-21,66,58,50,52,46,41,82,59,42,30.14,30.04,29.90,10,10,10,16,7,22,0.00,,,10
2012-10-22,68,59,50,50,46,39,87,66,35,30.22,30.17,30.13,10,10,10,10,2,,0.00,,,352
2012-10-23,73,62,50,59,51,43,88,65,33,30.20,30.16,30.12,10,10,10,9,3,,0.00,,,215
2012-10-24,78,69,60,63,58,54,88,74,44,30.19,30.15,30.10,10,10,10,10,5,,0.00,,,236
2012-10-25,77,66,55,63,60,54,94,79,47,30.19,30.14,30.11,10,8,0,8,2,,0.00,,Fog,38
2012-10-26,69,66,64,64,64,63,94,86,78,30.10,30.01,29.89,10,8,0,15,8,22,0.00,,Fog-Rain,46
2012-10-27,69,66,64,63,62,61,94,85,78,29.89,29.70,29.53,10,6,3,30,19,44,0.00,,Rain,40
2012-10-28,64,62,59,61,59,55,94,91,88,29.52,29.37,29.24,7,4,2,38,30,56,0.00,,Rain,7
2012-10-29,60,54,48,59,50,41,94,86,76,29.25,29.20,29.14,10,7,4,39,23,48,0.00,,Rain,307
2012-10-30,53,48,44,41,37,36,87,63,51,29.60,29.44,29.25,10,10,4,26,20,36,0.00,,,247
2012-10-31,57,52,46,41,37,34,71,59,44,29.74,29.67,29.60,10,10,10,17,11,24,0.00,,,256